Flag for Norway Weather past 2 weeks in Kirkenes, Norway

Now
65 °F

Mild.


Feels Like: 65 °F
Forecast: 53 / 68 °F
Wind: 3 mph from North

Location: Kirkenes Lufthavn

Current Time: Jul 26, 2014 at 6:08:15 PM

Latest Report: Jul 26, 2014 at 5:00 PM


Visibility: N/A

Pressure: 30.09 "Hg

Humidity: 61%

Dew point: 51 °F

Location of KirkenesLocation

Historic Weather in Kirkenes — Graph

°F

Kirkenes temperature yesterday

Maximum temperature yesterday: 68 °F (at 6:00 PM)
Minimum temperature yesterday: 56 °F (at 3:00 AM)
Average temperature yesterday: 62 °F

Past Weeks' High & Low Weather Summary

 TemperatureHumidityPressure
High70 °F (Jul 18, 3:00 PM)99% (Jul 21, 3:00 AM)30.33 "Hg (Jul 21, 3:00 AM)
Low48 °F (Jul 21, 2:00 AM)47% (Jul 25, 3:00 PM)30.08 "Hg (Jul 25, 2:00 AM)
Average58 °F77%30.19 "Hg
* Reported Jul 11 4:00 PM — Jul 26 4:00 PM, Kirkenes, Weather by CustomWeather, © 2014

Note: Actual official high and low records may vary slightly from our data, if they occured in-between our weather recording intervals... More about our weather records

Advertising

Kirkenes weather history for previous 24 hours

 ConditionsComfort  
Time TempWeatherWind HumidityBarometerVisibility
4:00 PM
Jul 26
66 °FMild.2 mph60%30.09 "HgN/A
3:00 PM66 °FMild.1 mph60%30.08 "HgN/A
2:00 PM65 °FMild.2 mph61%30.08 "HgN/A
1:00 PM65 °FMild.2 mph61%30.09 "HgN/A
12:00 PM65 °FMild.2 mph63%30.09 "HgN/A
11:00 AM63 °FMild.2 mph66%30.09 "HgN/A
10:00 AM64 °FMild.3 mph64%30.09 "HgN/A
9:00 AM63 °FMild.3 mph71%30.09 "HgN/A
8:00 AM62 °FCool.2 mph74%30.09 "HgN/A
7:00 AM60 °FCool.2 mph77%30.09 "HgN/A
6:00 AM60 °FCool.1 mph78%30.09 "HgN/A
5:00 AM61 °FCool.No wind76%30.09 "HgN/A
4:00 AM57 °FCool.2 mph86%30.10 "HgN/A
3:00 AM58 °FCool.No wind82%30.10 "HgN/A
2:00 AM59 °FCool.1 mph81%30.11 "HgN/A
1:00 AM59 °FCool.No wind78%30.11 "HgN/A
12:00 AM61 °FCool.No wind73%30.11 "HgN/A
11:00 PM
Jul 25
62 °FCool.No wind71%30.11 "HgN/A
10:00 PM62 °FCool.1 mph71%30.10 "HgN/A
9:00 PM62 °FCool.3 mph68%30.11 "HgN/A
8:00 PM66 °FMild.2 mph56%30.11 "HgN/A
7:00 PM66 °FMild.3 mph57%30.11 "HgN/A
6:00 PM68 °FMild.3 mph51%30.12 "HgN/A
Weather by CustomWeather, © 2014

See weather overviewHow to use our weather pages